Flag for French Polynesia Weather past 2 weeks in Taiohae, Marquesas Islands, French Polynesia

Now
81 °F

Partly sunny.


Feels Like: 87 °F
Forecast: 77 / 84 °F
Wind: 5 mph from East

Location: Atuona

Current Time: Jan 30, 2015 at 8:16:54 AM

Latest Report: Jan 30, 2015 at 7:30 AM


Visibility: 5 mi

Pressure: 29.85 "Hg

Humidity: 82%

Dew point: 75 °F

Location of TaiohaeLocation

Historic Weather in Taiohae — Graph

°F

Taiohae temperature yesterday

Maximum temperature yesterday: 83 °F (at 2:30 PM)
Minimum temperature yesterday: 76 °F (at 6:30 AM)
Average temperature yesterday: 79 °F

Past Weeks' High & Low Weather Summary

 TemperatureHumidityPressure
High90 °F (Jan 24, 12:30 PM)93% (Jan 19, 4:30 AM)29.94 "Hg (Jan 19, 4:30 AM)
Low72 °F (Jan 24, 5:30 AM)47% (Jan 27, 4:30 PM)29.70 "Hg (Jan 26, 3:30 PM)
Average80 °F74%29.85 "Hg
* Reported Jan 15 6:30 AM — Jan 30 6:30 AM, Taiohae, Weather by CustomWeather, © 2014

Note: Actual official high and low records may vary slightly from our data, if they occured in-between our weather recording intervals... More about our weather records

Advertising

Taiohae weather history for previous 24 hours

 ConditionsComfort  
Time TempWeatherWind HumidityBarometerVisibility
6:30 AM
Jan 30
76 °FPartly sunny.2 mph88%29.84 "Hg22 mi
5:30 AM76 °FPartly sunny.3 mph90%29.82 "Hg22 mi
4:30 AM76 °FMild.2 mph91%29.81 "HgN/A
3:30 AM76 °FMild.2 mph90%29.80 "HgN/A
2:30 AM76 °FMild.3 mph87%29.79 "HgN/A
1:30 AM76 °FMild.2 mph93%29.80 "HgN/A
12:30 AM76 °FMild.7 mph91%29.83 "HgN/A
11:30 PM
Jan 29
76 °FMild.3 mph88%29.85 "HgN/A
10:30 PM76 °FMild.3 mph87%29.87 "HgN/A
8:30 PM78 °FWarm.12 mph85%29.85 "HgN/A
7:30 PM78 °FWarm.6 mph87%29.83 "HgN/A
6:30 PM79 °FWarm.3 mph84%29.80 "HgN/A
5:30 PM81 °FWarm.12 mph77%29.78 "HgN/A
4:30 PM82 °FScattered clouds.16 mph76%29.76 "Hg12 mi
3:30 PM81 °FPartly sunny.15 mph80%29.76 "Hg12 mi
2:30 PM83 °FScattered clouds.18 mph75%29.77 "Hg12 mi
1:30 PM82 °FScattered clouds.12 mph83%29.79 "Hg12 mi
12:30 PM82 °FScattered clouds.14 mph81%29.81 "Hg12 mi
11:30 AM83 °FPartly sunny.12 mph79%29.84 "Hg4 mi
10:30 AM81 °FOvercast.3 mph87%29.87 "Hg2 mi
9:30 AM80 °FOvercast.3 mph82%29.88 "Hg19 mi
8:30 AM77 °FSprinkles. Overcast.7 mph91%29.88 "Hg2 mi
Weather by CustomWeather, © 2014

See weather overviewHow to use our weather pages